TimeEDT,TemperatureF,Dew PointF,Humidity,Sea Level PressureIn,VisibilityMPH,Wind Direction,Wind SpeedMPH,Gust SpeedMPH,PrecipitationIn,Events,Conditions,WindDirDegrees,DateUTC
12:52 AM,39.0,35.1,86,30.33,10.0,Calm,Calm,-,N/A,,Clear,0,2012-10-09 04:52:00
1:52 AM,39.9,36.0,86,30.33,10.0,Calm,Calm,-,N/A,,Overcast,0,2012-10-09 05:52:00
2:15 AM,41.0,37.4,87,30.29,8.0,Calm,Calm,-,N/A,,Overcast,0,2012-10-09 06:15:00
2:39 AM,41.0,37.4,87,30.29,10.0,NE,3.5,-,N/A,,Overcast,50,2012-10-09 06:39:00
2:52 AM,42.1,37.9,85,30.31,10.0,Variable,3.5,-,N/A,,Overcast,0,2012-10-09 06:52:00
3:42 AM,42.8,37.4,81,30.28,9.0,Variable,3.5,-,N/A,,Overcast,0,2012-10-09 07:42:00
4:52 AM,42.1,37.9,85,30.31,6.0,Calm,Calm,-,N/A,,Overcast,0,2012-10-09 08:52:00
5:52 AM,43.0,39.0,86,30.31,7.0,Calm,Calm,-,N/A,,Overcast,0,2012-10-09 09:52:00
7:52 AM,44.1,39.0,82,30.32,7.0,Calm,Calm,-,N/A,,Overcast,0,2012-10-09 11:52:00
8:08 AM,44.6,39.2,81,30.28,8.0,Variable,3.5,-,N/A,,Overcast,0,2012-10-09 12:08:00
8:52 AM,45.0,41.0,86,30.33,8.0,Calm,Calm,-,N/A,,Overcast,0,2012-10-09 12:52:00
9:10 AM,44.6,41.0,87,30.29,6.0,Calm,Calm,-,N/A,,Overcast,0,2012-10-09 13:10:00
9:52 AM,46.0,42.1,86,30.32,10.0,Variable,3.5,-,N/A,,Overcast,0,2012-10-09 13:52:00
10:48 AM,48.2,42.8,82,30.28,10.0,Variable,5.8,-,N/A,,Overcast,0,2012-10-09 14:48:00
10:52 AM,48.9,43.0,80,30.32,10.0,Variable,3.5,-,N/A,,Overcast,0,2012-10-09 14:52:00
11:10 AM,48.2,42.8,82,30.28,10.0,Variable,3.5,-,N/A,,Overcast,0,2012-10-09 15:10:00
11:39 AM,50.0,42.8,76,30.27,10.0,North,4.6,-,N/A,,Overcast,10,2012-10-09 15:39:00
11:52 AM,51.1,43.0,74,30.30,10.0,Variable,3.5,-,N/A,,Overcast,0,2012-10-09 15:52:00
12:05 PM,51.8,44.6,76,30.26,10.0,Calm,Calm,-,N/A,,Overcast,0,2012-10-09 16:05:00
12:12 PM,51.8,44.6,76,30.26,10.0,NNE,4.6,-,N/A,,Overcast,30,2012-10-09 16:12:00
12:52 PM,54.0,44.1,69,30.28,10.0,Calm,Calm,-,N/A,,Overcast,0,2012-10-09 16:52:00
1:52 PM,54.0,44.1,69,30.25,10.0,Calm,Calm,-,N/A,,Overcast,0,2012-10-09 17:52:00
2:52 PM,53.1,44.1,71,30.24,10.0,Variable,3.5,-,N/A,,Overcast,0,2012-10-09 18:52:00
3:52 PM,53.1,43.0,69,30.23,10.0,Variable,4.6,-,N/A,,Overcast,0,2012-10-09 19:52:00
4:52 PM,52.0,44.1,74,30.22,10.0,Calm,Calm,-,N/A,,Overcast,0,2012-10-09 20:52:00
5:52 PM,52.0,44.1,74,30.22,10.0,Calm,Calm,-,N/A,,Overcast,0,2012-10-09 21:52:00
6:52 PM,52.0,44.1,74,30.22,10.0,Calm,Calm,-,N/A,,Overcast,0,2012-10-09 22:52:00
7:23 PM,51.8,44.6,76,30.19,10.0,Calm,Calm,-,N/A,,Overcast,0,2012-10-09 23:23:00
7:36 PM,51.8,44.6,76,30.19,10.0,Calm,Calm,-,N/A,,Overcast,0,2012-10-09 23:36:00
7:52 PM,51.1,44.1,77,30.22,10.0,Calm,Calm,-,N/A,,Overcast,0,2012-10-09 23:52:00
8:28 PM,51.8,44.6,76,30.18,10.0,ESE,4.6,-,N/A,,Overcast,110,2012-10-10 00:28:00
8:52 PM,51.1,43.0,74,30.21,10.0,Calm,Calm,-,N/A,,Overcast,0,2012-10-10 00:52:00
9:52 PM,50.0,43.0,77,30.20,10.0,Variable,4.6,-,N/A,,Overcast,0,2012-10-10 01:52:00
10:01 PM,50.0,42.8,76,30.17,10.0,Calm,Calm,-,N/A,,Overcast,0,2012-10-10 02:01:00
10:52 PM,50.0,41.0,71,30.18,10.0,Calm,Calm,-,N/A,,Overcast,0,2012-10-10 02:52:00
11:52 PM,50.0,39.9,68,30.17,10.0,Calm,Calm,-,N/A,,Overcast,0,2012-10-10 03:52:00